• In Austria
  • List of Countries
  • For 7 days
  • Water Temperature
  • Satellite Maps
  • Weather Map
  • News
  • Weather Widgets
  • user-avatar
    Login

    Hourly Weather Zielonka

    Today, 19 October, Friday

    Time Temperature Precipitation Wind Pressure Humidity
    00:00 +13°C° 0 mm 1 mps 755 mmHg 64%
    01:00 +13°C° 0 mm 1 mps 756 mmHg 69%
    02:00 +12°C° 0 mm 1 mps 756 mmHg 72%
    03:00 +12°C° 0 mm 2 mps 756 mmHg 74%
    04:00 +10°C° 0 mm 2 mps 756 mmHg 77%
    05:00 +10°C° 0 mm 2 mps 756 mmHg 79%
    06:00 +10°C° 0 mm 2 mps 756 mmHg 80%
    07:00 +10°C° 0 mm 2 mps 757 mmHg 82%
    08:00 +13°C° 0 mm 2 mps 757 mmHg 76%
    09:00 +14°C° 0 mm 2 mps 757 mmHg 69%
    10:00 +16°C° 0 mm 2 mps 757 mmHg 63%
    11:00 +17°C° 0 mm 3 mps 757 mmHg 60%
    12:00 +18°C° 0 mm 3 mps 757 mmHg 58%
    13:00 +16°C° 0 mm 3 mps 758 mmHg 61%
    14:00 +16°C° 0 mm 3 mps 758 mmHg 63%
    15:00 +16°C° 0 mm 3 mps 758 mmHg 65%
    16:00 +15°C° 0 mm 2 mps 758 mmHg 68%
    17:00 +14°C° 0 mm 2 mps 758 mmHg 71%
    18:00 +13°C° 0 mm 2 mps 758 mmHg 75%
    19:00 +12°C° 0 mm 2 mps 758 mmHg 79%
    20:00 +10°C° 0 mm 2 mps 758 mmHg 80%
    21:00 +10°C° 0 mm 2 mps 758 mmHg 81%
    22:00 +9°C° 0 mm 2 mps 759 mmHg 82%
    23:00 +9°C° 0 mm 2 mps 759 mmHg 83%

    Tomorrow, 20 October, Saturday

    Time Temperature Precipitation Wind Pressure Humidity
    00:00 +8°C° 0 mm 2 mps 759 mmHg 84%
    01:00 +8°C° 0 mm 2 mps 759 mmHg 86%
    02:00 +8°C° 0 mm 1 mps 759 mmHg 86%
    03:00 +8°C° 0 mm 1 mps 759 mmHg 87%
    04:00 +8°C° 0 mm 1 mps 759 mmHg 87%
    05:00 +8°C° 0 mm 1 mps 759 mmHg 86%
    06:00 +8°C° 0 mm 1 mps 759 mmHg 84%
    07:00 +8°C° 0 mm 1 mps 759 mmHg 83%
    08:00 +9°C° 0 mm 1 mps 760 mmHg 74%
    09:00 +11°C° 0 mm 1 mps 760 mmHg 65%
    10:00 +12°C° 0 mm 1 mps 760 mmHg 57%
    11:00 +13°C° 0 mm 2 mps 759 mmHg 56%
    12:00 +13°C° 0 mm 2 mps 759 mmHg 55%
    13:00 +13°C° 0 mm 2 mps 759 mmHg 55%
    14:00 +13°C° 0 mm 2 mps 759 mmHg 58%
    15:00 +12°C° 0 mm 2 mps 759 mmHg 61%
    16:00 +12°C° 0 mm 2 mps 759 mmHg 64%
    17:00 +10°C° 0.1 mm 2 mps 759 mmHg 68%
    18:00 +10°C° 0.1 mm 2 mps 759 mmHg 72%
    19:00 +9°C° 0.1 mm 2 mps 759 mmHg 76%
    20:00 +9°C° 0 mm 2 mps 760 mmHg 78%
    21:00 +9°C° 0 mm 2 mps 760 mmHg 81%
    22:00 +8°C° 0 mm 2 mps 760 mmHg 83%
    23:00 +8°C° 0 mm 2 mps 760 mmHg 84%

    Day after tomorrow, 21 October, Sunday

    Time Temperature Precipitation Wind Pressure Humidity
    00:00 +7°C° 0 mm 2 mps 760 mmHg 86%
    01:00 +7°C° 0 mm 2 mps 760 mmHg 87%
    02:00 +7°C° 0 mm 2 mps 760 mmHg 88%
    03:00 +6°C° 0 mm 2 mps 760 mmHg 89%
    04:00 +6°C° 0 mm 2 mps 760 mmHg 90%
    05:00 +6°C° 0 mm 2 mps 761 mmHg 90%
    06:00 +6°C° 0 mm 2 mps 761 mmHg 91%
    07:00 +5°C° 0 mm 2 mps 761 mmHg 91%
    08:00 +7°C° 0 mm 2 mps 762 mmHg 83%
    09:00 +9°C° 0 mm 2 mps 762 mmHg 75%
    10:00 +12°C° 0 mm 2 mps 762 mmHg 66%
    11:00 +12°C° 0 mm 2 mps 762 mmHg 62%
    12:00 +13°C° 0 mm 2 mps 762 mmHg 57%
    13:00 +14°C° 0 mm 2 mps 762 mmHg 53%
    14:00 +13°C° 0 mm 2 mps 761 mmHg 55%
    15:00 +12°C° 0 mm 1 mps 761 mmHg 58%
    16:00 +12°C° 0 mm 1 mps 761 mmHg 60%
    17:00 +11°C° 0 mm 1 mps 761 mmHg 64%
    18:00 +10°C° 0 mm 1 mps 762 mmHg 68%
    19:00 +9°C° 0 mm 1 mps 762 mmHg 72%
    20:00 +8°C° 0 mm 1 mps 762 mmHg 74%
    21:00 +7°C° 0 mm 0 mps 762 mmHg 76%
    22:00 +7°C° 0 mm 0 mps 762 mmHg 78%
    23:00 +6°C° 0 mm 0 mps 762 mmHg 79%

    22 October, Monday

    Time Temperature Precipitation Wind Pressure Humidity
    00:00 +7°C° 0 mm 1 mps 762 mmHg 80%
    01:00 +7°C° 0 mm 1 mps 762 mmHg 82%
    02:00 +7°C° 0 mm 1 mps 761 mmHg 83%
    03:00 +6°C° 0 mm 1 mps 761 mmHg 84%
    04:00 +6°C° 0 mm 1 mps 761 mmHg 86%
    05:00 +6°C° 0 mm 1 mps 761 mmHg 86%
    06:00 +6°C° 0 mm 1 mps 761 mmHg 87%
    07:00 +6°C° 0 mm 1 mps 761 mmHg 87%
    08:00 +7°C° 0 mm 2 mps 760 mmHg 79%
    09:00 +9°C° 0 mm 2 mps 760 mmHg 72%
    10:00 +11°C° 0 mm 3 mps 760 mmHg 64%
    11:00 +11°C° 0 mm 3 mps 760 mmHg 60%
    12:00 +12°C° 0 mm 3 mps 759 mmHg 57%
    13:00 +13°C° 0 mm 3 mps 759 mmHg 53%
    14:00 +12°C° 0 mm 3 mps 758 mmHg 56%
    15:00 +12°C° 0 mm 3 mps 758 mmHg 60%
    16:00 +12°C° 0 mm 2 mps 757 mmHg 63%
    17:00 +10°C° 0.1 mm 3 mps 757 mmHg 66%
    18:00 +10°C° 0.1 mm 3 mps 757 mmHg 70%
    19:00 +10°C° 0.1 mm 3 mps 757 mmHg 74%
    20:00 +9°C° 0.5 mm 3 mps 757 mmHg 78%
    21:00 +9°C° 0.5 mm 3 mps 757 mmHg 81%
    22:00 +8°C° 0.5 mm 4 mps 756 mmHg 85%
    23:00 +8°C° 0.8 mm 4 mps 756 mmHg 84%

    23 October, Tuesday

    Time Temperature Precipitation Wind Pressure Humidity
    00:00 +7°C° 0.8 mm 4 mps 756 mmHg 83%
    01:00 +7°C° 0.8 mm 4 mps 756 mmHg 82%
    02:00 +7°C° 0.1 mm 4 mps 756 mmHg 81%
    03:00 +7°C° 0.1 mm 4 mps 756 mmHg 79%
    04:00 +6°C° 0.1 mm 4 mps 756 mmHg 77%
    05:00 +6°C° 0 mm 4 mps 756 mmHg 77%
    06:00 +5°C° 0 mm 4 mps 756 mmHg 78%
    07:00 +5°C° 0 mm 4 mps 756 mmHg 79%
    08:00 +6°C° 0 mm 4 mps 756 mmHg 74%
    09:00 +7°C° 0 mm 5 mps 756 mmHg 69%
    10:00 +8°C° 0 mm 5 mps 756 mmHg 63%
    11:00 +9°C° 0 mm 5 mps 755 mmHg 61%
    12:00 +9°C° 0 mm 6 mps 755 mmHg 59%
    13:00 +10°C° 0 mm 6 mps 754 mmHg 57%
    14:00 +9°C° 0 mm 6 mps 753 mmHg 59%
    15:00 +9°C° 0 mm 6 mps 752 mmHg 61%
    16:00 +8°C° 0 mm 6 mps 752 mmHg 63%
    17:00 +8°C° 0 mm 6 mps 751 mmHg 66%
    18:00 +8°C° 0 mm 7 mps 750 mmHg 70%
    19:00 +6°C° 0 mm 7 mps 749 mmHg 74%
    20:00 +6°C° 0.3 mm 7 mps 748 mmHg 76%
    21:00 +6°C° 0.3 mm 7 mps 747 mmHg 79%
    22:00 +6°C° 0.4 mm 7 mps 746 mmHg 82%
    23:00 +6°C° 0.8 mm 8 mps 745 mmHg 84%

    24 October, Wednesday

    Time Temperature Precipitation Wind Pressure Humidity
    00:00 +7°C° 0.8 mm 8 mps 744 mmHg 85%
    01:00 +7°C° 0.8 mm 8 mps 742 mmHg 87%
    02:00 +9°C° 1.2 mm 8 mps 741 mmHg 86%
    03:00 +9°C° 1.2 mm 8 mps 740 mmHg 86%
    04:00 +10°C° 1.2 mm 9 mps 739 mmHg 85%
    05:00 +10°C° 0.7 mm 9 mps 738 mmHg 83%
    06:00 +10°C° 0.7 mm 9 mps 738 mmHg 82%
    07:00 +9°C° 0.7 mm 10 mps 737 mmHg 80%
    08:00 +9°C° 0.2 mm 10 mps 738 mmHg 76%
    09:00 +9°C° 0.2 mm 10 mps 739 mmHg 72%
    10:00 +8°C° 0.2 mm 10 mps 740 mmHg 69%
    11:00 +8°C° 0.1 mm 9 mps 741 mmHg 66%
    12:00 +8°C° 0.1 mm 9 mps 741 mmHg 63%
    13:00 +9°C° 0.1 mm 8 mps 742 mmHg 60%
    14:00 +8°C° 0.1 mm 7 mps 743 mmHg 60%
    15:00 +8°C° 0.1 mm 7 mps 744 mmHg 60%
    16:00 +7°C° 0.1 mm 6 mps 744 mmHg 60%
    17:00 +7°C° 0 mm 5 mps 745 mmHg 63%
    18:00 +6°C° 0 mm 5 mps 745 mmHg 67%
    19:00 +5°C° 0 mm 5 mps 745 mmHg 70%
    20:00 +5°C° 0 mm 5 mps 746 mmHg 71%
    21:00 +5°C° 0 mm 4 mps 746 mmHg 72%
    22:00 +4°C° 0 mm 4 mps 747 mmHg 73%
    23:00 +4°C° 0 mm 4 mps 747 mmHg 75%
    Show more